GFSNIL_prec_precacc6_114.txt.gz
Total_Precipitation_Accumulation
0.00 0.00 0.00 0.00 0.00 0.00 0.00 0.00 0.01 0.00 0.00 0.00 0.00 0.00 0.01 0.01 0.01 0.03 0.08 0.11 0.14 0.22
0.00 0.00 0.00 0.00 0.00 0.00 0.00 0.00 0.01 0.00 0.00 0.00 0.00 0.00 0.00 0.00 0.02 0.03 0.03 0.04 0.08 0.12
0.00 0.00 0.00 0.00 0.00 0.00 0.00 0.00 0.00 0.01 0.00 0.00 0.01 0.02 0.01 0.01 0.01 0.03 0.08 0.07 0.08 0.11
0.00 0.00 0.00 0.01 0.00 0.00 0.00 0.00 0.00 0.01 0.00 0.00 0.00 0.02 0.03 0.02 0.03 0.09 0.18 0.15 0.15 0.17
0.00 0.01 0.01 0.01 0.00 0.00 0.00 0.00 0.00 0.01 0.01 0.00 0.00 0.00 0.02 0.04 0.06 0.08 0.14 0.17 0.16 0.21
0.01 0.02 0.02 0.02 0.00 0.00 0.00 0.00 0.00 0.00 0.00 0.00 0.02 0.02 0.02 0.03 0.04 0.12 0.17 0.20 0.14 0.14
0.05 0.06 0.05 0.02 0.00 0.00 0.00 0.00 0.00 0.00 0.00 0.00 0.00 0.01 0.01 0.02 0.03 0.06 0.12 0.20 0.17 0.15
0.08 0.07 0.05 0.03 0.01 0.00 0.00 0.00 0.00 0.00 0.00 0.00 0.00 0.00 0.00 0.00 0.00 0.01 0.02 0.05 0.07 0.09
0.15 0.16 0.11 0.05 0.02 0.00 0.00 0.00 0.00 0.00 0.00 0.00 0.00 0.00 0.00 0.00 0.00 0.00 0.00 0.01 0.01 0.04
0.19 0.20 0.15 0.09 0.04 0.02 0.01 0.00 0.00 0.00 0.00 0.00 0.00 0.00 0.00 0.00 0.00 0.00 0.00 0.00 0.00 0.00
0.18 0.17 0.16 0.10 0.06 0.02 0.01 0.00 0.00 0.00 0.00 0.00 0.00 0.00 0.00 0.00 0.00 0.00 0.00 0.00 0.00 0.00
0.18 0.12 0.10 0.05 0.03 0.01 0.01 0.01 0.01 0.00 0.00 0.00 0.00 0.00 0.00 0.00 0.00 0.01 0.01 0.00 0.01 0.01
0.18 0.13 0.06 0.02 0.02 0.01 0.01 0.01 0.01 0.00 0.00 0.01 0.00 0.00 0.00 0.00 0.00 0.00 0.02 0.04 0.03 0.04
0.39 0.19 0.13 0.06 0.04 0.03 0.02 0.02 0.01 0.02 0.01 0.01 0.01 0.01 0.00 0.00 0.00 0.00 0.00 0.02 0.05 0.08

GFSNIL_prec_precacc6_117.txt.gz
Total_Precipitation_Accumulation
0.01 0.00 0.00 0.01 0.01 0.00 0.00 0.00 0.01 0.01 0.01 0.00 0.00 0.00 0.00 0.00 0.00 0.00 0.01 0.04 0.09 0.18
0.00 0.00 0.01 0.01 0.01 0.01 0.00 0.00 0.00 0.01 0.01 0.01 0.01 0.00 0.00 0.01 0.01 0.01 0.01 0.01 0.03 0.09
0.00 0.00 0.00 0.01 0.01 0.01 0.00 0.00 0.00 0.01 0.01 0.01 0.01 0.00 0.00 0.00 0.01 0.01 0.01 0.01 0.03 0.06
0.00 0.00 0.00 0.01 0.01 0.01 0.00 0.00 0.00 0.00 0.00 0.01 0.01 0.01 0.01 0.01 0.00 0.01 0.01 0.01 0.04 0.08
0.00 0.01 0.02 0.01 0.01 0.02 0.01 0.00 0.00 0.00 0.00 0.01 0.01 0.01 0.01 0.01 0.02 0.03 0.03 0.04 0.06 0.12
0.03 0.03 0.03 0.03 0.02 0.02 0.01 0.00 0.00 0.00 0.00 0.00 0.01 0.01 0.01 0.00 0.01 0.02 0.05 0.07 0.05 0.08
0.03 0.04 0.04 0.04 0.04 0.03 0.02 0.00 0.00 0.00 0.00 0.00 0.00 0.01 0.01 0.01 0.01 0.02 0.05 0.13 0.12 0.11
0.03 0.04 0.04 0.06 0.06 0.05 0.02 0.01 0.00 0.00 0.00 0.00 0.01 0.01 0.01 0.01 0.01 0.01 0.02 0.04 0.07 0.13
0.05 0.10 0.11 0.09 0.08 0.07 0.04 0.01 0.00 0.00 0.00 0.00 0.00 0.01 0.01 0.00 0.00 0.00 0.01 0.01 0.02 0.08
0.08 0.17 0.19 0.13 0.09 0.10 0.06 0.02 0.01 0.01 0.00 0.00 0.00 0.01 0.01 0.01 0.00 0.00 0.00 0.00 0.00 0.01
0.18 0.20 0.26 0.18 0.14 0.11 0.07 0.05 0.02 0.01 0.01 0.01 0.00 0.00 0.01 0.01 0.00 0.00 0.00 0.00 0.00 0.00
0.20 0.17 0.23 0.21 0.17 0.13 0.09 0.06 0.04 0.01 0.01 0.01 0.01 0.00 0.00 0.00 0.00 0.01 0.00 0.00 0.01 0.01
0.19 0.16 0.19 0.14 0.15 0.18 0.09 0.05 0.03 0.01 0.01 0.02 0.00 0.01 0.00 0.00 0.00 0.00 0.00 0.01 0.01 0.03
0.36 0.22 0.20 0.15 0.11 0.09 0.06 0.05 0.05 0.04 0.03 0.02 0.01 0.01 0.01 0.02 0.00 0.00 0.00 0.01 0.02 0.04

GFSNIL_prec_precacc6_120.txt.gz
Total_Precipitation_Accumulation
0.00 0.00 0.00 0.00 0.01 0.01 0.00 0.01 0.01 0.02 0.02 0.02 0.02 0.02 0.02 0.01 0.00 0.00 0.00 0.01 0.01 0.03
0.00 0.00 0.00 0.01 0.02 0.02 0.01 0.00 0.00 0.02 0.02 0.02 0.02 0.02 0.02 0.01 0.01 0.01 0.00 0.00 0.01 0.04
0.00 0.00 0.00 0.00 0.01 0.02 0.01 0.00 0.01 0.01 0.01 0.02 0.03 0.02 0.02 0.01 0.01 0.01 0.01 0.01 0.01 0.01
0.00 0.00 0.00 0.00 0.01 0.02 0.01 0.01 0.01 0.02 0.01 0.01 0.02 0.02 0.02 0.01 0.01 0.01 0.01 0.01 0.01 0.01
0.00 0.00 0.00 0.01 0.01 0.02 0.03 0.01 0.01 0.02 0.02 0.01 0.01 0.01 0.02 0.01 0.00 0.00 0.01 0.01 0.02 0.02
0.02 0.02 0.02 0.01 0.02 0.03 0.04 0.02 0.01 0.02 0.02 0.01 0.01 0.01 0.01 0.01 0.01 0.00 0.01 0.01 0.01 0.02
0.02 0.02 0.04 0.06 0.07 0.06 0.04 0.02 0.01 0.02 0.01 0.01 0.01 0.01 0.01 0.01 0.01 0.01 0.01 0.01 0.01 0.03
0.01 0.01 0.02 0.04 0.07 0.06 0.04 0.02 0.01 0.03 0.02 0.01 0.01 0.01 0.01 0.01 0.03 0.03 0.02 0.02 0.03 0.09
0.01 0.02 0.03 0.04 0.06 0.09 0.09 0.06 0.06 0.02 0.02 0.01 0.01 0.02 0.01 0.01 0.01 0.02 0.02 0.03 0.03 0.07
0.02 0.03 0.05 0.04 0.07 0.11 0.12 0.10 0.09 0.06 0.02 0.00 0.00 0.01 0.02 0.02 0.00 0.01 0.02 0.01 0.01 0.03
0.07 0.06 0.12 0.10 0.10 0.12 0.15 0.16 0.11 0.07 0.02 0.01 0.01 0.01 0.02 0.02 0.01 0.01 0.01 0.01 0.01 0.00
0.08 0.10 0.20 0.24 0.21 0.20 0.19 0.23 0.21 0.09 0.02 0.01 0.01 0.01 0.01 0.01 0.00 0.01 0.00 0.00 0.01 0.01
0.13 0.14 0.23 0.22 0.35 0.39 0.26 0.20 0.18 0.08 0.01 0.02 0.00 0.00 0.00 0.01 0.00 0.00 0.00 0.00 0.01 0.02
0.21 0.26 0.29 0.30 0.25 0.39 0.34 0.21 0.19 0.13 0.04 0.02 0.04 0.01 0.02 0.02 0.00 0.00 0.00 0.00 0.00 0.01

GFSNIL_prec_precacc6_123.txt.gz
Total_Precipitation_Accumulation
0.00 0.00 0.00 0.00 0.00 0.00 0.01 0.02 0.03 0.03 0.04 0.03 0.03 0.03 0.03 0.01 0.01 0.01 0.01 0.01 0.01 0.01
0.00 0.00 0.00 0.00 0.01 0.01 0.00 0.00 0.00 0.01 0.02 0.02 0.03 0.03 0.03 0.02 0.02 0.02 0.01 0.01 0.01 0.01
0.00 0.00 0.00 0.00 0.00 0.01 0.00 0.00 0.00 0.01 0.01 0.01 0.02 0.03 0.04 0.03 0.02 0.02 0.02 0.02 0.01 0.00
0.00 0.00 0.00 0.00 0.00 0.01 0.01 0.01 0.01 0.02 0.02 0.01 0.02 0.02 0.02 0.02 0.02 0.01 0.02 0.01 0.01 0.01
0.00 0.00 0.00 0.00 0.00 0.01 0.02 0.01 0.01 0.02 0.02 0.01 0.01 0.01 0.02 0.03 0.02 0.02 0.02 0.02 0.01 0.02
0.00 0.00 0.01 0.00 0.01 0.01 0.03 0.02 0.02 0.03 0.03 0.01 0.01 0.01 0.01 0.01 0.02 0.01 0.01 0.01 0.01 0.02
0.00 0.00 0.02 0.03 0.03 0.04 0.03 0.03 0.02 0.02 0.02 0.02 0.02 0.01 0.02 0.01 0.01 0.01 0.01 0.00 0.01 0.01
0.00 0.00 0.01 0.01 0.01 0.02 0.04 0.03 0.01 0.03 0.03 0.01 0.02 0.03 0.02 0.01 0.02 0.02 0.02 0.01 0.01 0.03
0.00 0.00 0.00 0.01 0.01 0.02 0.06 0.06 0.06 0.02 0.03 0.05 0.03 0.03 0.03 0.02 0.00 0.01 0.02 0.02 0.02 0.04
0.00 0.01 0.01 0.01 0.01 0.03 0.07 0.09 0.09 0.08 0.03 0.02 0.04 0.06 0.02 0.01 0.00 0.01 0.02 0.02 0.01 0.03
0.00 0.01 0.02 0.02 0.02 0.04 0.10 0.13 0.11 0.10 0.07 0.03 0.02 0.07 0.04 0.02 0.00 0.01 0.01 0.02 0.02 0.01
0.01 0.04 0.07 0.08 0.08 0.10 0.14 0.20 0.21 0.14 0.09 0.06 0.03 0.03 0.03 0.01 0.00 0.00 0.01 0.01 0.01 0.02
0.03 0.07 0.10 0.11 0.23 0.25 0.23 0.21 0.20 0.19 0.16 0.17 0.09 0.04 0.03 0.01 0.00 0.00 0.00 0.00 0.00 0.02
0.04 0.12 0.16 0.20 0.18 0.35 0.37 0.25 0.24 0.26 0.23 0.19 0.17 0.12 0.05 0.01 0.00 0.00 0.00 0.00 0.00 0.01